Regional Weather Roundup
Issued by NWS Albany, NY

Home | Current Version | Previous Version | Text Only | Print | Product List | Glossary On
Versions: 1 2 3 4 5 6 7 8 9 10 11 12 13 14 15 16 17 18 19 20 21 22 23 24 25 26 27 28
000
ASUS41 KALY 041710
RWRALY

NEW YORK STATE HOURLY WEATHER ROUNDUP
NATIONAL WEATHER SERVICE ALBANY NY
100 PM EDT WED MAY 04 2016

NOTE: "FAIR" INDICATES FEW OR NO CLOUDS BELOW 12,000 FEET WITH NO
SIGNIFICANT WEATHER AND/OR NO OBSTRUCTIONS TO VISIBILITY.

NYZ032-033-038>043-046>054-057>066-NYZ062>081-082-084-041800-
EAST


CITY           SKY/WX    TMP DP  RH WIND       PRES   REMARKS
ALBANY         LGT RAIN  50  46  86 S5        29.82S
GLENS FALLS    CLOUDY    53  45  74 NE3       29.81F
POUGHKEEPSIE   CLOUDY    52  46  80 N7        29.79F
NEWBURGH       CLOUDY    48  46  93 NE9       29.79F
MONTGOMERY     CLOUDY    49  46  90 NE8       29.78F
WHITE PLAINS   PTSUNNY   49  44  83 E13G22    29.77F FOG
ISLIP          LGT RAIN  49  46  90 E10       29.77F
NEW YORK CITY  CLOUDY    51  47  86 NE17      29.77F
CENTRAL PARK   CLOUDY    50  44  80 E14G24    29.79F
$$

NYZ005>009-017-018-044>046-055-056-041800-
CENTRAL


CITY           SKY/WX    TMP DP  RH WIND       PRES   REMARKS
FULTON         CLOUDY    62  45  53 CALM      29.73F
SYRACUSE       CLOUDY    58  49  72 NE9       29.72F
ROME           CLOUDY    56  51  84 E9        29.75F
ELMIRA         CLOUDY    59  45  59 VRB3      29.70F
BINGHAMTON     CLOUDY    51  49  92 SE7       29.73F
MONTICELLO     CLOUDY    46  45  93 E12       29.78F
$$

NYZ026>034-041>043-087-041800-
NORTH


CITY           SKY/WX    TMP DP  RH WIND       PRES   REMARKS
WATERTOWN      CLOUDY    57  46  66 NE5       29.75S
FORT DRUM      NOT AVBL
MASSENA        CLOUDY    52  41  66 NE15      29.80F
SARANAC LAKE   CLOUDY    51  42  71 CALM      29.76F
PLATTSBURGH    CLOUDY    54  44  69 SE10      29.82S
$$

NYZ001>004-010>016-019>021-085-041800-
WEST


CITY           SKY/WX    TMP DP  RH WIND       PRES   REMARKS
NIAGARA FALLS  PTSUNNY   63  42  46 CALM      29.69F
BUFFALO        PTSUNNY   61  37  41 NE9       29.69F
DUNKIRK        MOSUNNY   57  44  62 N8        29.69F
JAMESTOWN      PTSUNNY   55  39  54 SE3       29.68S
WELLSVILLE     CLOUDY    53  44  71 SE12      29.71S
ROCHESTER      CLOUDY    59  42  53 N8        29.71F
PENN YAN       CLOUDY    58  45  62 VRB5      29.71F
$$

             KEY
       WCI = WIND CHILL INDEX
       VSB = VISIBILITY
       HX  = HEAT INDEX
$$




USA.gov is the U.S. government's official web portal to all federal, state and local government web resources and services.